Flag for Brazil Weather past 2 weeks in Uruguaiana, Rio Grande do Sul, Brazil

Now
55 °F

Passing clouds.


Feels Like: 53 °F
Forecast: 48 / 72 °F
Wind: 8 mph from West

Location: Pelotas Airport

Current Time: Sep 16, 2014 at 5:13:46 AM

Latest Report: Sep 16, 2014 at 5:00 AM


Visibility: N/A

Pressure: 30.01 "Hg

Humidity: 88%

Dew point: 52 °F

Location of UruguaianaLocation

Historic Weather in Uruguaiana — Graph

°F

Uruguaiana temperature yesterday

Maximum temperature yesterday: 72 °F (at 11:00 AM)
Minimum temperature yesterday: 59 °F (at 11:00 PM)
Average temperature yesterday: 65 °F

Past Weeks' High & Low Weather Summary

 TemperatureHumidityPressure
High88 °F (Sep 9, 2:00 PM)100% (Sep 1, 4:00 AM)30.27 "Hg (Sep 1, 4:00 AM)
Low48 °F (Sep 8, 5:00 AM)40% (Sep 7, 12:00 PM)29.56 "Hg (Sep 9, 8:00 PM)
Average62 °F86%30.00 "Hg
* Reported Sep 1 4:00 AM — Sep 16 4:00 AM, Uruguaiana, Weather by CustomWeather, © 2014

Note: Actual official high and low records may vary slightly from our data, if they occured in-between our weather recording intervals... More about our weather records

Advertising

Uruguaiana weather history for previous 24 hours

 ConditionsComfort  
Time TempWeatherWind HumidityBarometerVisibility
4:00 AM
Sep 16
55 °FPassing clouds.9 mph94%30.01 "HgN/A
3:00 AM57 °FPassing clouds.7 mph88%30.01 "HgN/A
2:00 AM57 °FPassing clouds.10 mph88%30.01 "HgN/A
1:00 AM59 °FPassing clouds.9 mph82%30.01 "HgN/A
12:00 AM59 °FPassing clouds.8 mph82%30.01 "HgN/A
11:00 PM
Sep 15
59 °FPassing clouds.9 mph88%30.01 "HgN/A
10:00 PM61 °FPassing clouds.12 mph83%29.98 "HgN/A
9:00 PM61 °FMostly cloudy.13 mph88%29.95 "HgN/A
8:00 PM61 °FMostly cloudy.15 mph88%29.95 "HgN/A
7:00 PM61 °FMostly cloudy.16 mph94%29.92 "HgN/A
6:00 PM63 °FMostly cloudy.23 mph88%29.89 "HgN/A
5:00 PM63 °FOvercast.17 mph88%29.86 "HgN/A
4:00 PM63 °FMore clouds than sun.24 mph88%29.83 "HgN/A
3:00 PM63 °FDrizzle. Mostly cloudy.12 mph100%29.80 "Hg1 mi
2:00 PM64 °FLight rain. Broken clouds.20 mph94%29.77 "Hg6 mi
1:00 PM70 °FPartly sunny.16 mph73%29.77 "HgN/A
12:00 PM70 °FPartly sunny.15 mph69%29.77 "HgN/A
11:00 AM72 °FPartly sunny.14 mph69%29.74 "HgN/A
10:00 AM70 °FPartly sunny.14 mph73%29.77 "HgN/A
9:00 AM68 °FBroken clouds.7 mph88%29.77 "HgN/A
8:00 AM66 °FScattered showers. Broken clouds.3 mph94%29.77 "Hg5 mi
7:00 AM64 °FPartly sunny.2 mph100%29.74 "Hg5 mi
6:00 AM64 °FFog.3 mph100%29.71 "Hg3 mi
5:00 AM64 °FFog.3 mph100%29.71 "Hg3 mi
Weather by CustomWeather, © 2014

See weather overviewHow to use our weather pages